FW7109 Weather Reports


Display with metric or nautical units.
time (UTC)temp
F
wind
direction
speed
MPH
gust
MPH
rain 1hr
in
rain 24hr
in
rain mn
in
humidity
%
barometer
mb
20260905234547 90 248 1.0 6.0 0.00 0.00 0.00 58 1011.5
20260905233101 92 0 0.0 3.0 0.00 0.00 0.00 57 1011.5
20260905231551 94 220 1.0 4.0 0.00 0.00 0.00 55 1011.6
20260905230050 96 236 1.0 5.0 0.00 0.00 0.00 52 1011.4
20260905224551 97 0 0.0 3.0 0.00 0.00 0.00 54 1011.1
20260905223049 97 225 0.0 2.0 0.00 0.00 0.00 53 1011.3
20260905221601 97 0 0.0 2.0 0.00 0.00 0.00 48 1011.1
20260905220057 99 35 0.0 7.0 0.00 0.00 0.00 46 1011.1
20260905214556 100 36 0.0 3.0 0.00 0.00 0.00 44 1011.2
20260905213048 101 0 1.0 6.0 0.00 0.00 0.00 44 1011.2
20260905211550 100 38 1.0 5.0 0.00 0.00 0.00 45 1011.2
20260905210050 100 38 1.0 4.0 0.00 0.00 0.00 46 1011.5
20260905204548 99 32 2.0 6.0 0.00 0.00 0.00 46 1011.7
20260905203048 99 0 1.0 5.0 0.00 0.00 0.00 48 1011.7
20260905201546 98 41 2.0 6.0 0.00 0.00 0.00 48 1011.9
20260905194549 98 42 0.0 3.0 0.00 0.00 0.00 47 1012.1
20260905193046 98 0 1.0 4.0 0.00 0.00 0.00 46 1012.5
20260905191546 101 47 0.0 4.0 0.00 0.00 0.00 43 1012.5
20260905190051 102 211 0.0 3.0 0.00 0.00 0.00 46 1012.6
20260905184554 101 250 0.0 4.0 0.00 0.00 0.00 46 1012.8
20260905183048 100 240 0.0 8.0 0.00 0.00 0.00 46 1013.2
20260905181545 100 0 0.0 3.0 0.00 0.00 0.00 50 1013.3
20260905180100 100 207 2.0 5.0 0.00 0.00 0.00 46 1013.6
20260905174550 99 242 1.0 6.0 0.00 0.00 0.00 48 1013.5
20260905173109 98 5 1.0 4.0 0.00 0.00 0.00 48 1013.6
20260905171553 98 26 1.0 6.0 0.00 0.00 0.00 49 1013.7
20260905170053 97 49 2.0 6.0 0.00 0.00 0.00 52 1014.0
20260905164555 97 213 1.0 3.0 0.00 0.00 0.00 51 1014.1
20260905163047 96 271 1.0 6.0 0.00 0.00 0.00 54 1014.3
20260905161559 96 65 0.0 5.0 0.00 0.00 0.00 55 1014.7
20260905160058 95 221 1.0 5.0 0.00 0.00 0.00 55 1014.8
20260905154552 95 41 0.0 3.0 0.00 0.00 0.00 58 1014.8
20260905153048 94 342 0.0 2.0 0.00 0.00 0.00 61 1014.7
20260905151558 92 0 1.0 4.0 0.00 0.00 0.00 63 1014.4
20260905150051 91 0 0.0 2.0 0.00 0.00 0.00 63 1014.4
20260905144549 90 0 0.0 3.0 0.00 0.00 0.00 65 1014.3
20260905143049 89 0 0.0 3.0 0.00 0.00 0.00 71 1014.3
20260905141547 87 0 0.0 2.0 0.00 0.00 0.00 72 1014.3
20260905140058 85 0 0.0 2.0 0.00 0.00 0.00 76 1014.6
20260905134558 82 0 0.0 0.0 0.00 0.00 0.00 82 1014.6
20260905133049 80 0 0.0 0.0 0.00 0.00 0.00 87 1014.7
20260905131547 79 0 0.0 0.0 0.00 0.00 0.00 88 1014.9
20260905130052 78 0 0.0 2.0 0.00 0.00 0.00 90 1014.9
20260905124554 77 0 0.0 2.0 0.00 0.00 0.00 93 1014.7
20260905123047 76 0 0.0 0.0 0.00 0.00 0.00 94 1014.6
20260905121556 75 0 0.0 0.0 0.00 0.00 0.00 94 1014.5
20260905120059 74 0 0.0 0.0 0.00 0.00 0.00 93 1014.4
20260905114600 74 0 0.0 0.0 0.00 0.00 0.00 93 1014.4
20260905113054 74 0 0.0 0.0 0.00 0.00 0.00 93 1014.2
20260905111639 74 0 0.0 0.0 0.00 0.00 0.00 93 1014.0
20260905110048 74 0 0.0 0.0 0.00 0.00 0.00 93 1014.0
20260905104557 74 0 0.0 0.0 0.00 0.00 0.00 93 1014.0
20260905103044 75 0 0.0 0.0 0.00 0.00 0.00 92 1013.9
20260905101555 75 0 0.0 0.0 0.00 0.00 0.00 92 1013.8
20260905100057 75 0 0.0 0.0 0.00 0.00 0.00 92 1013.8
20260905094550 75 0 0.0 0.0 0.00 0.00 0.00 92 1013.8
20260905093110 75 0 0.0 0.0 0.00 0.00 0.00 92 1013.8
20260905091554 75 0 0.0 0.0 0.00 0.00 0.00 91 1013.6
20260905090048 76 0 0.0 0.0 0.00 0.00 0.00 91 1013.7
20260905084548 76 0 0.0 0.0 0.00 0.00 0.00 90 1013.6
20260905083044 76 0 0.0 0.0 0.00 0.00 0.00 89 1013.6
20260905081548 77 0 0.0 0.0 0.00 0.00 0.00 89 1013.7
20260905080051 77 0 0.0 0.0 0.00 0.00 0.00 88 1013.9
20260905074547 77 0 0.0 0.0 0.00 0.00 0.00 88 1013.8
20260905073052 77 0 0.0 0.0 0.00 0.00 0.00 87 1013.7
20260905071550 78 0 0.0 0.0 0.00 0.00 0.00 87 1013.8
20260905070054 78 0 0.0 0.0 0.00 0.00 0.00 87 1013.8
20260905064602 78 0 0.0 0.0 0.00 0.00 0.00 86 1013.8
20260905063042 78 0 0.0 0.0 0.00 0.00 0.00 86 1013.9
20260905061548 78 0 0.0 0.0 0.00 0.00 0.00 86 1014.0
20260905060048 78 0 0.0 0.0 0.00 0.00 0.00 86 1014.1
20260905054551 78 0 0.0 0.0 0.00 0.00 0.00 86 1014.1
20260905053042 78 0 0.0 0.0 0.00 0.00 0.00 86 1014.2
20260905051550 78 0 0.0 0.0 0.00 0.00 0.00 85 1014.2
20260905050056 79 0 0.0 0.0 0.00 0.00 0.00 85 1014.2
20260905044548 79 0 0.0 0.0 0.00 0.00 0.00 84 1014.1
20260905043042 80 0 0.0 0.0 0.00 0.00 0.00 84 1014.2
20260905041556 80 0 0.0 0.0 0.00 0.00 0.00 84 1014.2
20260905040049 80 0 0.0 0.0 0.00 0.00 0.00 83 1014.1
20260905034543 80 0 0.0 0.0 0.00 0.00 0.00 83 1014.1
20260905033053 81 0 0.0 0.0 0.00 0.00 0.00 83 1014.2
20260905031549 81 0 0.0 0.0 0.00 0.00 0.00 82 1014.2
20260905030052 82 0 0.0 0.0 0.00 0.00 0.00 82 1014.2
20260905024550 82 0 0.0 0.0 0.00 0.00 0.00 81 1014.3
20260905023052 82 0 0.0 0.0 0.00 0.00 0.00 80 1014.2
20260905021549 83 0 0.0 0.0 0.00 0.00 0.00 79 1014.1
20260905020048 83 0 0.0 0.0 0.00 0.00 0.00 79 1014.1
20260905014554 83 0 0.0 0.0 0.00 0.00 0.00 79 1014.1
20260905013042 84 0 0.0 0.0 0.00 0.00 0.00 77 1013.8
20260905011556 85 0 0.0 0.0 0.00 0.00 0.00 75 1013.5
20260905010048 85 0 0.0 0.0 0.00 0.00 0.00 74 1013.3
20260905004550 87 0 0.0 0.0 0.00 0.00 0.00 72 1013.2
20260905003055 88 0 0.0 0.0 0.00 0.00 0.00 70 1013.2
20260905001551 89 0 0.0 0.0 0.00 0.00 0.00 68 1013.3
20260905000049 91 0 0.0 0.0 0.00 0.00 0.00 65 1013.2